Weather Roundup
Issued by NWS Chicago, IL

Home | Current Version | Previous Version | Text Only | Print | Product List | Glossary On
Versions: 1 2 3 4 5 6 7 8 9 10 11 12 13 14 15 16 17 18 19 20 21 22 23 24 25 26 27 28 29 30 31 32 33 34 35 36 37 38 39 40 41 42 43 44 45 46 47 48 49 50
012
NZUS59 KLOT 221221
HRRLOT

CHICAGO AREA WEATHER ROUNDUP
NATIONAL WEATHER SERVICE CHICAGO/ROMEOVILLE IL
700 AM CDT FRI MAY 22 2015

NOTE: "FAIR" INDICATES FEW OR NO CLOUDS BELOW 12,000 FEET WITH NO
SIGNIFICANT WEATHER AND/OR OBSTRUCTIONS TO VISIBILITY.

* THESE STATIONS ARE NOT UNDER NWS QUALITY CONTROL. THEY ALSO MAY NOT
  REPORT WEATHER SUCH AS PRECIPITATION OR FOG.

ILZ005-006-012>014-019>023-221300-
NORTHEAST ILLINOIS

CITY           SKY/WX    TMP DP  RH WIND       PRES   REMARKS
OHARE          SUNNY     51  39  63 NE6       30.15R
6HR MIN TEMP:  47; 6HR MAX TEMP:  59;

MIDWAY         SUNNY     54  43  66 NE5       30.14R
6HR MIN TEMP:  50; 6HR MAX TEMP:  60;

AURORA         SUNNY     50  41  71 NE8       30.15R
6HR MIN TEMP:  43; 6HR MAX TEMP:  56;

LANSING*       SUNNY     51  44  79 N3        30.14R
JOLIET*        SUNNY     53  47  79 CALM      30.14R
WAUKEGAN       SUNNY     48  37  65 NE7       30.16R
6HR MIN TEMP:  39; 6HR MAX TEMP:  52;

DUPAGE AIRPORT SUNNY     50  42  74 N5        30.14R
6HR MIN TEMP:  43; 6HR MAX TEMP:  54;

WHEELING       SUNNY     50  39  66 N3        30.18R
6HR MIN TEMP:  45; 6HR MAX TEMP:  58;

KANKAKEE*      SUNNY     53  47  80 W8        30.14R
MORRIS*        SUNNY     51  46  80 CALM      30.12R
LEWIS AIRPORT* SUNNY     50  42  74 CALM      30.14R
NORTHERLY IS     N/A     51  42  71 N7          N/A
$$

WIZ051-052-058>065-066-070>072-221300-
SOUTHEAST WISCONSIN

CITY           SKY/WX    TMP DP  RH WIND       PRES   REMARKS
MILWAUKEE      SUNNY     48  34  58 NE8       30.19R
6HR MIN TEMP:  43; 6HR MAX TEMP:  48;

KENOSHA*       SUNNY     48  38  68 NE5       30.17R
RACINE*        SUNNY     48  37  65 NE8       30.19R
BURLINGTON     SUNNY     44  37  76 CALM      30.17R
WAUKESHA       SUNNY     45  32  61 E3        30.19R
WEST BEND      SUNNY     41  36  81 CALM      30.19R
$$

INZ001>003-010>013-019-020-221300-
NORTHWEST INDIANA

CITY           SKY/WX    TMP DP  RH WIND       PRES   REMARKS
GARY*          SUNNY     54  48  82 N5        30.15R
MICHIGAN CITY* NOT AVBL
RENSSELAER*    NOT AVBL
VALPARAISO     SUNNY     52  45  77 NE3       30.14R
$$

LMZ740>746-221300-
SOUTHERN LAKE MICHIGAN

STATION/POSITION TIME  SKY/WX   TEMP WIND        PRES    VSBY
                                AIR  DIR/SP/G
                 (UTC)          (F)  (DEG/KT/KT) (MB)    (MI)
HARRISON CRIB    1200            48   20/  6/  7   N/A
BURNHAM HARBOR   1200            51   20/  4/  9   N/A
CALUMET HARBOR   1100            49  330/  3/  6   N/A
BURNS HARBOR     1100            52   50/  6/  7 1020.3R
MICHIGAN CITY    1200            51   40/  8/  8   N/A
$$

ABBREVIATIONS USED IN REMARKS
   TC - TEMPERATURE IN CELSIUS
  WCI - WIND CHILL INDEX
   HX - HEAT INDEX
  VSB - VISIBILITY
$$



USA.gov is the U.S. government's official web portal to all federal, state and local government web resources and services.